EW1047 Weather Reports


time (UTC)temp
F
wind
direction
speed
knots
gust
knots
rain 1hr
in
rain 24hr
in
rain mn
in
humidity
%
barometer
mb
20211017150205 50 340 0.0 2.6 0.00 0.00 0.00 32 1030.4
20211017144705 49 9 0.9 2.6 0.00 0.00 0.00 35 1030.4
20211017144204 48 9 0.9 2.6 0.00 0.00 0.00 36 1030.4
20211017143705 48 34 0.0 0.0 0.00 0.00 0.00 37 1030.4
20211017143204 46 34 0.0 2.6 0.00 0.00 0.00 39 1030.4
20211017141704 41 55 0.0 1.7 0.00 0.00 0.00 45 1030.4
20211017141205 39 87 0.0 0.0 0.00 0.00 0.00 47 1030.3
20211017140705 38 87 0.0 0.0 0.00 0.00 0.00 47 1030.3
20211017140204 37 87 0.0 0.0 0.00 0.00 0.00 48 1030.3
20211017134705 34 87 0.0 0.0 0.00 0.00 0.00 51 1030.3
20211017134204 34 87 0.0 1.7 0.00 0.00 0.00 51 1030.3
20211017133705 34 88 0.9 1.7 0.00 0.00 0.00 52 1030.3
20211017133204 34 86 0.9 2.6 0.00 0.00 0.00 52 1030.3
20211017131704 33 85 0.9 2.6 0.00 0.00 0.00 52 1030.3
20211017131204 33 82 0.9 2.6 0.00 0.00 0.00 52 1030.3
20211017130705 33 83 0.0 1.7 0.00 0.00 0.00 51 1030.3
20211017130204 33 86 0.9 1.7 0.00 0.00 0.00 51 1030.3
20211017124704 33 84 0.0 0.0 0.00 0.00 0.00 49 1030.3
20211017124205 33 84 0.0 0.9 0.00 0.00 0.00 49 1030.3
20211017123704 34 84 0.0 0.9 0.00 0.00 0.00 48 1030.3
20211017123204 34 84 0.0 1.7 0.00 0.00 0.00 48 1030.3
20211017121705 35 84 0.0 0.9 0.00 0.00 0.00 48 1030.3
20211017121204 35 84 0.0 0.0 0.00 0.00 0.00 47 1030.3
20211017120705 35 84 0.0 0.9 0.00 0.00 0.00 47 1030.3
20211017120205 35 84 0.0 0.9 0.00 0.00 0.00 47 1030.5
20211017114704 35 84 0.9 1.7 0.00 0.00 0.00 46 1030.5
20211017114204 35 86 0.9 2.6 0.00 0.00 0.00 46 1030.5
20211017113705 35 85 0.9 2.6 0.00 0.00 0.00 46 1030.5
20211017113204 35 88 0.9 2.6 0.00 0.00 0.00 46 1030.5
20211017111704 35 96 0.9 1.7 0.00 0.00 0.00 45 1030.5
20211017111204 35 96 0.9 1.7 0.00 0.00 0.00 46 1030.5
20211017110705 35 96 1.7 2.6 0.00 0.00 0.00 46 1030.5
20211017110205 35 96 1.7 2.6 0.00 0.00 0.00 46 1030.8
20211017104705 35 94 0.9 1.7 0.00 0.00 0.00 45 1030.8
20211017104204 35 94 0.9 1.7 0.00 0.00 0.00 45 1030.8
20211017103704 35 94 0.9 1.7 0.00 0.00 0.00 45 1030.8
20211017103204 35 93 0.9 1.7 0.00 0.00 0.00 46 1030.8
20211017101705 35 91 0.9 2.6 0.00 0.00 0.00 45 1030.8
20211017101204 35 93 0.9 2.6 0.00 0.00 0.00 44 1030.8
20211017100705 36 97 0.9 1.7 0.00 0.00 0.00 43 1030.8
20211017100204 36 98 0.0 0.9 0.00 0.00 0.00 43 1030.8
20211017094705 37 98 0.9 1.7 0.00 0.00 0.00 43 1030.8
20211017094204 37 98 0.0 1.7 0.00 0.00 0.00 43 1030.8
20211017093704 37 98 0.9 1.7 0.00 0.00 0.00 43 1031.2
20211017093204 37 99 0.0 0.0 0.00 0.00 0.00 43 1031.2
20211017091705 37 99 0.0 0.0 0.00 0.00 0.00 42 1031.2
20211017091205 37 99 0.0 0.0 0.00 0.00 0.00 42 1031.2
20211017090705 37 98 0.0 0.0 0.00 0.00 0.00 41 1031.2
20211017090205 38 98 0.0 0.0 0.00 0.00 0.00 41 1031.2
20211017084704 38 97 0.0 0.0 0.00 0.00 0.00 40 1031.2
20211017084204 38 97 0.0 0.9 0.00 0.00 0.00 40 1031.2
20211017083705 38 97 0.0 0.9 0.00 0.00 0.00 39 1031.2
20211017083204 38 97 0.0 0.0 0.00 0.00 0.00 39 1031.2
20211017081704 38 97 0.0 0.0 0.00 0.00 0.00 39 1031.0
20211017081205 38 97 0.0 0.0 0.00 0.00 0.00 38 1031.0
20211017080705 38 97 0.0 0.0 0.00 0.00 0.00 38 1031.0
20211017080205 39 97 0.0 2.6 0.00 0.00 0.00 38 1031.0
20211017074704 39 96 1.7 2.6 0.00 0.00 0.00 37 1031.2
20211017074205 39 96 1.7 2.6 0.00 0.00 0.00 37 1031.2
20211017073705 39 96 0.9 1.7 0.00 0.00 0.00 36 1031.2
20211017073204 39 96 0.9 1.7 0.00 0.00 0.00 36 1031.2
20211017071705 40 96 0.9 1.7 0.00 0.00 0.00 35 1031.2
20211017071204 40 96 0.9 1.7 0.00 0.00 0.00 35 1031.2
20211017070705 40 96 0.9 1.7 0.00 0.00 0.00 35 1031.2
20211017070204 40 96 0.9 2.6 0.00 0.00 0.00 35 1031.2
20211017064705 41 93 1.7 2.6 0.00 0.00 0.00 33 1031.2
20211017064204 42 91 1.7 2.6 0.00 0.00 0.00 33 1031.2
20211017063704 42 90 0.0 1.7 0.00 0.00 0.00 32 1031.2
20211017063204 42 90 0.9 2.6 0.00 0.00 0.00 32 1031.2
20211017061704 44 94 1.7 2.6 0.00 0.00 0.00 31 1031.6
20211017061205 44 98 1.7 2.6 0.00 0.00 0.00 30 1031.6
20211017060704 45 109 0.9 1.7 0.00 0.00 0.00 30 1031.6
20211017060205 45 109 0.9 1.7 0.00 0.00 0.00 29 1031.6
20211017054704 46 109 0.0 1.7 0.00 0.00 0.00 29 1031.6
20211017054205 47 110 0.9 2.6 0.00 0.00 0.00 29 1031.6
20211017053704 47 111 0.9 2.6 0.00 0.00 0.00 29 1031.6
20211017053205 47 105 1.7 2.6 0.00 0.00 0.00 29 1031.6
20211017051705 47 116 1.7 2.6 0.00 0.00 0.00 28 1031.6
20211017051204 47 114 0.9 2.6 0.00 0.00 0.00 28 1031.6
20211017050705 47 115 0.9 1.7 0.00 0.00 0.00 28 1031.8
20211017050204 48 115 0.9 2.6 0.00 0.00 0.00 28 1031.8
20211017044704 48 111 0.9 2.6 0.00 0.00 0.00 28 1031.8
20211017044204 48 124 0.9 2.6 0.00 0.00 0.00 28 1031.8
20211017043704 48 120 0.9 2.6 0.00 0.00 0.00 28 1031.8
20211017043204 48 129 1.7 2.6 0.00 0.00 0.00 28 1031.8
20211017041705 47 107 2.6 5.2 0.00 0.00 0.00 28 1031.7
20211017041204 47 117 1.7 2.6 0.00 0.00 0.00 28 1031.3
20211017040705 47 128 0.0 2.6 0.00 0.00 0.00 28 1031.3
20211017040204 47 125 0.9 2.6 0.00 0.00 0.00 28 1031.3
20211017034705 46 125 1.7 2.6 0.00 0.00 0.00 28 1031.3
20211017034205 46 123 0.9 2.6 0.00 0.00 0.00 28 1031.3
20211017033704 46 125 0.9 2.6 0.00 0.00 0.00 28 1031.3
20211017033205 46 124 0.9 2.6 0.00 0.00 0.00 28 1031.3
20211017031705 45 122 0.9 2.6 0.00 0.00 0.00 28 1031.3
20211017031204 45 119 0.9 1.7 0.00 0.00 0.00 28 1031.3
20211017030704 44 115 0.9 2.6 0.00 0.00 0.00 28 1031.0
20211017030205 44 115 0.9 1.7 0.00 0.00 0.00 28 1031.0
20211017024704 44 113 0.9 0.9 0.00 0.00 0.00 27 1031.0
20211017024205 45 113 0.0 0.9 0.00 0.00 0.00 27 1031.0
20211017023704 45 113 0.0 2.6 0.00 0.00 0.00 27 1031.0
20211017023204 45 161 0.9 2.6 0.00 0.00 0.00 27 1031.0
20211017021705 46 178 0.0 0.0 0.00 0.00 0.00 26 1031.0
20211017021204 46 178 0.0 0.0 0.00 0.00 0.00 26 1030.9
20211017020705 46 178 0.0 0.0 0.00 0.00 0.00 26 1030.9
20211017020204 47 178 0.0 2.6 0.00 0.00 0.00 26 1030.7
20211017014704 48 197 0.9 2.6 0.00 0.00 0.00 26 1030.7
20211017014205 48 224 0.9 1.7 0.00 0.00 0.00 25 1030.7
20211017013704 49 225 0.0 0.0 0.00 0.00 0.00 25 1030.7
20211017013205 50 225 0.0 0.0 0.00 0.00 0.00 24 1030.5
20211017011704 52 225 0.0 0.0 0.00 0.00 0.00 22 1030.5
20211017011205 53 225 0.0 0.0 0.00 0.00 0.00 22 1030.5
20211017010704 54 225 0.0 0.0 0.00 0.00 0.00 21 1030.5
20211017010205 55 225 0.0 0.0 0.00 0.00 0.00 20 1030.3
20211017004704 58 225 0.0 0.0 0.00 0.00 0.00 20 1030.3
20211017004205 59 225 0.0 0.0 0.00 0.00 0.00 19 1030.3
20211017003705 59 225 0.0 0.0 0.00 0.00 0.00 19 1030.0
20211017003204 60 225 0.0 2.6 0.00 0.00 0.00 18 1030.0
20211017001704 62 227 0.0 1.7 0.00 0.00 0.00 17 1030.0
20211017001204 62 226 0.9 2.6 0.00 0.00 0.00 17 1030.0
20211017000705 63 228 0.9 2.6 0.00 0.00 0.00 16 1030.0
20211017000204 63 238 1.7 4.3 0.00 0.00 0.00 16 1030.0
20211016234705 65 241 2.6 5.2 0.00 0.00 0.00 15 1030.0
20211016234204 65 238 4.3 6.1 0.00 0.00 0.00 15 1030.0
20211016233704 65 234 3.5 6.1 0.00 0.00 0.00 14 1030.0
20211016233205 65 220 0.9 7.0 0.00 0.00 0.00 14 1030.0
20211016231705 65 226 3.5 5.2 0.00 0.00 0.00 13 1030.5
20211016231205 65 217 2.6 5.2 0.00 0.00 0.00 13 1030.5
20211016230704 66 194 2.6 6.1 0.00 0.00 0.00 13 1030.5
20211016230205 66 200 2.6 7.8 0.00 0.00 0.00 13 1030.5
20211016224704 66 190 2.6 7.0 0.00 0.00 0.00 13 1030.5
20211016224205 66 226 1.7 5.2 0.00 0.00 0.00 12 1030.5
20211016223704 66 207 1.7 4.3 0.00 0.00 0.00 11 1030.5
20211016223205 66 198 2.6 7.8 0.00 0.00 0.00 10 1030.5
20211016221704 66 204 2.6 5.2 0.00 0.00 0.00 13 1030.5
20211016221205 67 218 3.5 6.1 0.00 0.00 0.00 13 1030.5
20211016220704 67 224 2.6 6.1 0.00 0.00 0.00 14 1030.5
20211016220205 67 249 5.2 8.7 0.00 0.00 0.00 15 1031.3
20211016214704 67 216 4.3 7.8 0.00 0.00 0.00 16 1031.3
20211016214204 67 198 4.3 7.8 0.00 0.00 0.00 15 1031.3
20211016213705 67 249 7.8 12.2 0.00 0.00 0.00 16 1031.3
20211016213205 67 264 1.7 8.7 0.00 0.00 0.00 16 1031.3
20211016211704 66 317 1.7 2.6 0.00 0.00 0.00 15 1031.3
20211016211204 67 310 1.7 4.3 0.00 0.00 0.00 15 1031.3
20211016210704 67 266 2.6 7.8 0.00 0.00 0.00 16 1031.3
20211016210205 66 240 1.7 4.3 0.00 0.00 0.00 16 1031.3
20211016204704 66 201 0.9 4.3 0.00 0.00 0.00 16 1031.3
20211016204204 67 254 2.6 5.2 0.00 0.00 0.00 16 1031.3
20211016203705 67 246 5.2 7.8 0.00 0.00 0.00 16 1031.3
20211016203204 66 261 0.9 7.0 0.00 0.00 0.00 15 1031.3
20211016201704 65 193 1.7 4.3 0.00 0.00 0.00 18 1031.3
20211016201204 65 232 1.7 5.2 0.00 0.00 0.00 17 1031.3
20211016200704 66 187 1.7 5.2 0.00 0.00 0.00 17 1031.3
20211016200204 65 229 2.6 7.8 0.00 0.00 0.00 17 1031.3
20211016194704 62 9 0.9 2.6 0.00 0.00 0.00 18 1032.1
20211016194205 64 309 1.7 5.2 0.00 0.00 0.00 18 1032.1
20211016193704 64 235 1.7 4.3 0.00 0.00 0.00 18 1032.1
20211016193204 64 256 1.7 5.2 0.00 0.00 0.00 18 1032.1
20211016191704 63 261 1.7 5.2 0.00 0.00 0.00 20 1032.1
20211016191204 62 321 0.9 5.2 0.00 0.00 0.00 20 1032.1
20211016190704 62 15 2.6 5.2 0.00 0.00 0.00 20 1032.1
20211016190204 62 329 1.7 7.8 0.00 0.00 0.00 20 1032.4
20211016184704 61 335 2.6 7.8 0.00 0.00 0.00 21 1032.4
20211016184204 60 0 0.9 4.3 0.00 0.00 0.00 22 1032.4
20211016183704 59 340 1.7 7.8 0.00 0.00 0.00 23 1032.4
20211016183205 59 14 4.3 10.4 0.00 0.00 0.00 23 1033.0
20211016181705 58 1 3.5 8.7 0.00 0.00 0.00 23 1033.0
20211016181204 57 348 5.2 8.7 0.00 0.00 0.00 24 1032.5
20211016180704 57 347 2.6 6.1 0.00 0.00 0.00 24 1033.4
20211016180204 56 359 4.3 8.7 0.00 0.00 0.00 24 1033.4
20211016174705 55 336 4.3 7.0 0.00 0.00 0.00 25 1033.4
20211016174204 55 5 3.5 7.8 0.00 0.00 0.00 26 1033.4
20211016173704 55 16 4.3 8.7 0.00 0.00 0.00 25 1033.4
20211016173204 54 5 4.3 10.4 0.00 0.00 0.00 26 1033.4
20211016171704 52 33 4.3 8.7 0.00 0.00 0.00 27 1033.4
20211016171204 52 13 5.2 10.4 0.00 0.00 0.00 27 1033.4
20211016170704 51 353 6.1 10.4 0.00 0.00 0.00 28 1033.4
20211016170204 51 3 6.1 12.2 0.00 0.00 0.00 28 1033.4
20211016164705 50 24 7.8 10.4 0.00 0.00 0.00 29 1033.4
20211016164204 49 12 6.1 11.3 0.00 0.00 0.00 30 1033.4
20211016163704 49 18 4.3 8.7 0.00 0.00 0.00 30 1033.4
20211016163205 48 359 5.2 13.0 0.00 0.00 0.00 31 1033.4
20211016161705 47 7 5.2 11.3 0.00 0.00 0.00 32 1033.4
20211016161204 46 353 7.0 12.2 0.00 0.00 0.00 32 1033.4
20211016160704 46 25 6.1 10.4 0.00 0.00 0.00 33 1033.4
20211016160204 45 26 6.1 10.4 0.00 0.00 0.00 33 1033.4
20211016154704 44 10 5.2 10.4 0.00 0.00 0.00 35 1033.1
20211016154205 44 7 6.1 11.3 0.00 0.00 0.00 35 1033.1
20211016153704 44 351 3.5 7.8 0.00 0.00 0.00 36 1033.1
20211016153204 43 11 6.1 11.3 0.00 0.00 0.00 36 1033.1
20211016151704 42 10 4.3 8.7 0.00 0.00 0.00 38 1033.1
20211016151205 41 13 4.3 10.4 0.00 0.00 0.00 38 1033.1
20211016150704 41 359 5.2 10.4 0.00 0.00 0.00 38 1033.1